"Pseudo-MPEC" for BLT106

Created 2023 Feb 3 23:22:03 UT using Find_Orb

Click here for an explanation of pseudo-MPECs

 
 Astrometry: 
     BLT106 *KC2023 01 16a(@AstrometryrYW',D!S5SmGot!JVEg2.(Dfkyqi:/2YAm?eILTW24
     BLT106  KC2023 01 16@UqnVvKU=]cF[*7Z!ZNredacted;UD;h?.-^WZ83clickTmhere_W24
     BLT106  KC2023 01 16H#5sforXR0uRlYC5$UjJYAX@%jTqW.pWA+*S^explanation;N6-W24

Station data:
(W24) Shamrock Banks Observatory, Clare  (N43.830757 W84.761830)  US/Michigan.

Orbital elements:  BLT106
   Perihelion 2023 Jun 3.97167 +/- 85.2 TT = 23:19:12 (JD 2460099.47167)
Epoch 2023 Jan 16.0 TT = JDT 2459960.5   Earth MOID: 0.0069      AutoNEOCP
M 207.88361825 +/- 70               (J2000 ecliptic)
n   1.09458555 +/- 0.396            Peri.  180.15954 +/- 59
a   0.93247294 +/- 0.225            Node    89.02413 +/- 41
e   0.0625096 +/- 0.172             Incl.    2.17191 +/- 41
P   0.90/328.89d           H 23.20  G  0.15   U 12.1  SR
q 0.87418442 +/- 0.248    Q 0.99076146 +/- 0.446
From 3 observations 2023 Jan. 16 (14.4 min); mean residual 1".60
Residuals in arcseconds: 
230116 W24  1.1-  1.1-    230116 W24  2.2+  2.3+    230116 W24  1.1-  1.2-    

Ephemerides (geocentric):
Date (UTC) HH   RA             Dec           delta  r     elong  mag " sig PA
---- --------  ------------   ------------  ------ ------ -----  --- --------
2023 02 03 23  00 07 18.107   +41 40 08.40  .04233 .97296  71.4 20.3  29d 144
2023 02 04 00  00 07 14.624   +41 39 57.50  .04235 .97293  71.3 20.3  29d 144
2023 02 04 01  00 07 11.139   +41 39 46.54  .04238 .97289  71.3 20.3  29d 145
2023 02 04 02  00 07 07.651   +41 39 35.50  .04241 .97286  71.2 20.3  29d 145
2023 02 04 03  00 07 04.162   +41 39 24.40  .04244 .97283  71.2 20.3  29d 145
2023 02 04 04  00 07 00.670   +41 39 13.23  .04246 .97280  71.2 20.3  29d 145
2023 02 04 05  00 06 57.176   +41 39 01.99  .04249 .97277  71.1 20.3  29d 145
2023 02 04 06  00 06 53.680   +41 38 50.69  .04252 .97273  71.1 20.3  29d 145
2023 02 04 07  00 06 50.181   +41 38 39.31  .04255 .97270  71.0 20.3  29d 145
2023 02 04 08  00 06 46.680   +41 38 27.87  .04257 .97267  71.0 20.3  29d 145
2023 02 04 09  00 06 43.177   +41 38 16.35  .04260 .97264  70.9 20.3  29d 145
2023 02 04 10  00 06 39.672   +41 38 04.77  .04263 .97261  70.9 20.3  29d 145
2023 02 04 11  00 06 36.165   +41 37 53.11  .04266 .97257  70.9 20.3  29d 145
2023 02 04 12  00 06 32.655   +41 37 41.39  .04268 .97254  70.8 20.3  29d 145
2023 02 04 13  00 06 29.143   +41 37 29.60  .04271 .97251  70.8 20.3  29d 145
2023 02 04 14  00 06 25.629   +41 37 17.74  .04274 .97248  70.7 20.3  29d 145
2023 02 04 15  00 06 22.113   +41 37 05.80  .04277 .97245  70.7 20.3  29d 145
2023 02 04 16  00 06 18.594   +41 36 53.80  .04279 .97241  70.6 20.3  29d 145
2023 02 04 17  00 06 15.073   +41 36 41.73  .04282 .97238  70.6 20.3  29d 145
2023 02 04 18  00 06 11.550   +41 36 29.58  .04285 .97235  70.6 20.3  29d 145
2023 02 04 19  00 06 08.024   +41 36 17.37  .04288 .97232  70.5 20.3  29d 145
2023 02 04 20  00 06 04.497   +41 36 05.08  .04290 .97228  70.5 20.4  29d 145
2023 02 04 21  00 06 00.967   +41 35 52.72  .04293 .97225  70.4 20.4  29d 145
2023 02 04 22  00 05 57.435   +41 35 40.29  .04296 .97222  70.4 20.4  29d 145
2023 02 04 23  00 05 53.900   +41 35 27.79  .04299 .97219  70.3 20.4  29d 145
2023 02 05 00  00 05 50.363   +41 35 15.22  .04301 .97216  70.3 20.4  29d 145
2023 02 05 01  00 05 46.824   +41 35 02.57  .04304 .97212  70.3 20.4  29d 145
2023 02 05 02  00 05 43.283   +41 34 49.86  .04307 .97209  70.2 20.4  29d 145
2023 02 05 03  00 05 39.739   +41 34 37.07  .04309 .97206  70.2 20.4  29d 145
2023 02 05 04  00 05 36.193   +41 34 24.21  .04312 .97203  70.1 20.4  29d 145
2023 02 05 05  00 05 32.645   +41 34 11.27  .04315 .97199  70.1 20.4  29d 145
2023 02 05 06  00 05 29.095   +41 33 58.26  .04318 .97196  70.0 20.4  29d 145
2023 02 05 07  00 05 25.542   +41 33 45.19  .04320 .97193  70.0 20.4  29d 145
2023 02 05 08  00 05 21.987   +41 33 32.03  .04323 .97190  70.0 20.4  29d 145
2023 02 05 09  00 05 18.429   +41 33 18.81  .04326 .97186  69.9 20.4  29d 145
2023 02 05 10  00 05 14.870   +41 33 05.51  .04329 .97183  69.9 20.4  29d 145
2023 02 05 11  00 05 11.308   +41 32 52.13  .04331 .97180  69.8 20.4  29d 145
2023 02 05 12  00 05 07.743   +41 32 38.69  .04334 .97177  69.8 20.4  29d 145
2023 02 05 13  00 05 04.177   +41 32 25.17  .04337 .97173  69.7 20.4  29d 145
2023 02 05 14  00 05 00.608   +41 32 11.57  .04339 .97170  69.7 20.4  29d 145
2023 02 05 15  00 04 57.037   +41 31 57.90  .04342 .97167  69.7 20.4  29d 145
2023 02 05 16  00 04 53.463   +41 31 44.16  .04345 .97163  69.6 20.4  29d 145
2023 02 05 17  00 04 49.888   +41 31 30.34  .04347 .97160  69.6 20.4  29d 145
2023 02 05 18  00 04 46.310   +41 31 16.45  .04350 .97157  69.5 20.4  29d 145
2023 02 05 19  00 04 42.729   +41 31 02.48  .04353 .97154  69.5 20.4  29d 145
2023 02 05 20  00 04 39.147   +41 30 48.44  .04356 .97150  69.4 20.4  29d 145
2023 02 05 21  00 04 35.562   +41 30 34.32  .04358 .97147  69.4 20.4  29d 145
2023 02 05 22  00 04 31.974   +41 30 20.13  .04361 .97144  69.4 20.4  29d 145